AO-07 1 07530U 74089B 14204.77900644 -.00000049 00000-0 -37898-4 0 211 2 07530 101.4745 185.4096 0011567 221.8763 259.6192 12.53606149816108 FO-29 1 24278U 96046B 14205.28316326 -.00000012 00000-0 24228-4 0 4273 2 24278 098.5123 214.0249 0350329 201.2212 281.9975 13.53026390885685 SO-33 1 25509U 98061B 14205.49711369 .00000279 00000-0 44578-4 0 8008 2 25509 031.4315 308.9815 0349331 081.2826 005.5287 14.29558530822498 RS-22 1 27939U 03042A 14205.72392782 .00000230 00000-0 50993-4 0 6971 2 27939 097.8122 018.0086 0013512 353.4239 006.6786 14.65253583578224 HO-68 1 36122U 09072B 14205.73324199 -.00000043 00000-0 00000 0 0 7920 2 36122 100.2449 256.4612 0007733 150.5044 209.6497 13.16317023221370 AO-73 1 39444U 13066AE 14205.24689160 .00000633 00000-0 90992-4 0 2020 2 39444 097.7706 274.6367 0062681 122.0501 238.6794 14.78420374 34940 EO-79 1 40025U 14033R 14205.74301174 .00000315 00000-0 43106-4 0 966 2 40025 097.9805 100.4461 0012785 170.0265 190.1229 14.85269114 5168 UO-11 1 14781U 84021B 14205.10828168 .00000196 00000-0 31525-4 0 5534 2 14781 097.8496 264.5117 0009786 067.5811 292.6438 14.81655788633436 AO-16 1 20439U 90005D 14204.43958328 .00000011 00000-0 20081-4 0 735 2 20439 098.5078 141.0952 0011755 057.1042 076.0666 14.32369440279675 LO-19 1 20442U 90005G 14205.09306135 .00000019 00000-0 22920-4 0 120 2 20442 098.4788 142.2799 0012494 044.6947 315.5242 14.32570868279965 AO-27 1 22825U 93061C 14204.92872071 .00000014 00000-0 22814-4 0 7214 2 22825 098.6639 150.8171 0008546 182.3644 219.7751 14.29730833 86035 IO-26 1 22826U 93061D 14205.39793331 .00000017 00000-0 23668-4 0 4777 2 22826 098.6581 151.4974 0009259 174.1274 186.0018 14.30032195 86232 GO-32 1 25397U 98043D 14205.13549950 -.00000011 00000-0 13632-4 0 4007 2 25397 098.4714 161.7507 0001587 153.4767 271.6222 14.23451599833124 NO-44 1 26931U 01043C 14204.76074276 -.00000019 00000-0 24589-4 0 6551 2 26931 067.0530 304.1440 0006951 281.2912 078.7407 14.30131449668830 SO-50 1 27607U 02058C 14205.74441025 .00000311 00000-0 46224-4 0 4561 2 27607 064.5565 117.8626 0051614 359.9478 000.2098 14.73830643623018 CO-55 1 27844U 03031E 14205.01305661 .00000079 00000-0 55969-4 0 9776 2 27844 098.6980 213.2544 0010284 162.8159 250.7601 14.21528610573810 CO-57 1 27848U 03031J 14204.48463191 .00000044 00000-0 40322-4 0 9176 2 27848 098.7074 212.4643 0010094 170.6557 354.4936 14.21212876573657 AO-51 1 28375U 04025K 14204.44206000 .00000022 00000-0 19901-4 0 8934 2 28375 098.2523 150.1218 0082070 242.2298 117.0553 14.41404357529124 CP3 1 31129U 07012N 14204.49084980 .00000177 00000-0 49340-4 0 8021 2 31129 097.9364 180.6403 0096940 257.5259 219.5339 14.54756518385319 CO-65 1 32785U 08021C 14205.14759878 .00000337 00000-0 45109-4 0 95 2 32785 097.6965 255.2267 0014993 071.7400 348.0377 14.85394886337510 PRISM 1 33493U 09002B 14205.69735673 .00000709 00000-0 80476-4 0 1325 2 33493 098.2509 022.9490 0016875 326.4484 033.5632 14.89630748297764 SOHLA-1 1 33496U 09002E 14205.06647483 .00000114 00000-0 26991-4 0 4099 2 33496 098.1747 326.0951 0007682 122.8599 334.1798 14.70841064294935 TISAT-1 1 36799U 10035E 14205.66361051 .00000711 00000-0 88159-4 0 3946 2 36799 098.0171 297.9443 0013367 193.0789 167.0062 14.85805269218288 STUDSAT 1 36801U 10035G 14205.36055242 .00003731 00000-0 32703-3 0 8582 2 36801 098.0375 306.4235 0010071 163.6834 236.8659 14.97268991218696 ALMASAT-1 1 38078U 12006B 14204.47070262 .00009564 00000-0 19926-3 0 900 2 38078 069.4706 331.6371 0587368 343.4964 014.7697 14.51792576126891 XATCOBEO 1 38082U 12006F 14205.80464392 .00173825 13039-4 63311-3 0 4301 2 38082 069.4331 208.4806 0157312 274.4679 142.6102 15.71493503130272 CUBEBUG-1 1 39153U 13018D 14205.73401049 .00000296 00000-0 48551-4 0 3239 2 39153 098.0394 285.9593 0016895 228.0936 131.8835 14.77792033 67102 ESTCUBE-1 1 39161U 13021C 14205.65911880 .00000298 00000-0 57815-4 0 3169 2 39161 098.0958 286.2797 0008391 278.8225 081.2036 14.70061549 65106 DUCHIFAT-1 1 40021U 14033M 14205.67313137 .00000500 00000-0 64442-4 0 980 2 40021 097.9806 100.3883 0013666 171.0055 189.1443 14.85391535 5146 NANOSATCBR1 1 40024U 14033Q 14205.74264275 .00000370 00000-0 49534-4 0 945 2 40024 097.9813 100.4473 0012782 170.0157 190.1347 14.85292921 5158 DTUSAT-2 1 40030U 14033W 14205.68425487 .00000305 00000-0 42311-4 0 965 2 40030 097.9785 100.3620 0012240 161.2730 198.8966 14.84902338 5155 ANTELSAT 1 40034U 14033AA 14205.73561483 .00000424 00000-0 74741-4 0 900 2 40034 097.9758 099.6682 0063096 086.8370 274.0049 14.71234647 5127 MET-2/21 1 22782U 93055A 14205.39747280 .00000111 00000-0 86411-4 0 1174 2 22782 082.5516 143.7845 0023010 157.5558 350.8385 13.83741210 55264 OKEAN-4 1 23317U 94066A 14205.45840882 .00000328 00000-0 35021-4 0 5963 2 23317 082.5371 032.9837 0019607 339.2958 053.9863 14.85592655 68646 NOAA-14 1 23455U 94089A 14205.36045973 .00000076 00000-0 63144-4 0 8341 2 23455 098.7777 288.1361 0008363 295.3103 106.6916 14.13979016 9209 NOAA-15 1 25338U 98030A 14205.47534947 .00000095 00000-0 59126-4 0 2710 2 25338 098.7541 199.2647 0011255 045.9816 105.3654 14.25446783842150 RESURS 1 25394U 98043A 14204.89024272 -.00000036 00000-0 23481-5 0 7106 2 25394 098.4158 167.7219 0002319 129.6666 283.0144 14.24396041833543 FENGYUN1 1 25730U 99025A 14204.96790858 .00000011 00000-0 30485-4 0 1993 2 25730 098.9145 165.8371 0025521 011.8154 032.5995 14.11971916782719 OKEAN-0 1 25860U 99039A 14204.93519137 .00000156 00000-0 30504-4 0 3105 2 25860 098.0457 168.5889 0000914 095.8044 330.5886 14.75319174807577 NOAA-16 1 26536U 00055A 14205.25618083 -.00000062 00000-0 -88797-5 0 7674 2 26536 098.9881 265.7769 0011485 082.3228 277.9247 14.13030805713355 NOAA-17 1 27453U 02032A 14205.48406331 .00000031 00000-0 30548-4 0 6635 2 27453 098.3153 203.2354 0012759 068.7712 291.4829 14.24758371627996 NOAA-18 1 28654U 05018A 14205.46191822 .00000109 00000-0 84784-4 0 1698 2 28654 099.1508 185.7150 0014943 155.9788 357.0052 14.12041009472827 NOAA-19 1 33591U 09005A 14205.49054916 .00000186 00000-0 12664-3 0 3143 2 33591 098.9463 150.4197 0014299 019.4333 089.7652 14.11738246281259 HUBBLE 1 20580U 90037B 14205.12058066 .00000728 00000-0 37512-4 0 613 2 20580 028.4699 154.3174 0003018 324.2449 139.2047 15.05551574130288 ISS 1 25544U 98067A 14205.74944681 -.00015421 00000-0 -25860-3 0 7655 2 25544 051.6493 273.4055 0006097 284.3403 172.6474 15.50420758897150 CO-58 1 28895U 05043F 14205.10165154 .00000205 00000-0 49810-4 0 8261 2 28895 097.8328 045.0501 0016120 251.8260 108.1187 14.61941237465649 FALCON 1 30776U 07006E 14204.59300609 .00001991 00000-0 10179-3 0 9170 2 30776 035.4279 248.2854 0002476 238.5626 254.5113 15.16682323406265 MAST 1 31126U 07012K 14204.51636404 .00000127 00000-0 38084-4 0 991 2 31126 097.9168 183.5222 0090953 240.4033 234.8431 14.55323920385678 CAPE1 1 31130U 07012P 14204.46542222 .00000115 00000-0 35843-4 0 1060 2 31130 097.9377 180.1722 0097477 259.0127 100.0093 14.54505516385086 COMPASS 1 32787U 08021E 14204.21027805 .00000647 00000-0 76121-4 0 9914 2 32787 097.6991 256.7093 0014894 067.1710 293.1078 14.88067857337546 AAUSAT2 1 32788U 08021F 14205.13804448 .00000895 00000-0 10126-3 0 9785 2 32788 097.7000 258.6429 0014219 062.8479 297.4187 14.88793042337740 DO-64 1 32789U 08021G 14205.12987918 .00001236 00000-0 12191-3 0 188 2 32789 097.7189 265.4953 0012610 049.4781 008.4180 14.93728164338010 CO-66 1 32791U 08021J 14204.13222137 .00000543 00000-0 66970-4 0 9731 2 32791 097.6986 255.3234 0015613 070.5493 289.7409 14.86697192337394 RS-30 1 32953U 08025A 14205.73746055 .00000010 00000-0 00000 0 0 1347 2 32953 082.5067 177.8616 0020591 074.5559 285.7790 12.43049239279924 METEOR-M 1 35865U 09049A 14205.73108420 -.00000056 00000-0 -59164-5 0 7436 2 35865 098.5469 252.0019 0002702 008.1341 351.9886 14.21925634251675 RS-38 1 35869U 09049E 14205.21416564 -.00000012 00000-0 13574-4 0 6573 2 35869 098.5401 251.2835 0004187 002.7298 088.0722 14.22218233251636 JUGNU 1 37839U 11058B 14204.55376719 .00000328 00000-0 33368-4 0 6592 2 37839 019.9627 034.5289 0019152 024.8603 013.3444 14.12320953143690 SRMSAT 1 37841U 11058D 14202.99404888 .00000313 00000-0 27016-4 0 6632 2 37841 019.9732 064.0009 0011953 306.6240 195.7394 14.10360563143280 RAX-2 1 37853U 11061D 14204.75897802 .00000685 00000-0 56459-4 0 8678 2 37853 101.7117 251.8570 0215100 310.9643 162.1288 14.89804889148100 AUBIESAT 1 37854U 11061E 14204.71393576 .00000623 00000-0 50808-4 0 8476 2 37854 101.7154 253.7791 0212985 308.0623 170.9047 14.91155999148151 HRBE 1 37855U 11061F 14205.11006476 .00000937 00000-0 71991-4 0 8588 2 37855 101.7156 253.6718 0215194 308.2963 102.9543 14.90446337148183 RS-39 1 38051U 11062C 14205.52525726 .00035137 00000-0 35447-3 0 7480 2 38051 051.6250 034.1639 0004090 302.5210 096.3206 15.65009340139956 E-STAR 1 38079U 12006C 14205.16579370 .00040908 39631-5 44120-3 0 9134 2 38079 069.4512 253.7424 0354647 301.2051 081.0515 15.13610401129042 GOLIAT 1 38085U 12006J 14205.56462688 .00035675 38240-5 41252-3 0 2156 2 38085 069.4546 260.6808 0379138 304.6621 051.9340 15.07307679128900 HORYU-2 1 38340U 12025D 14205.32458847 .00000594 00000-0 10149-3 0 9177 2 38340 098.2624 163.1585 0013762 060.4920 299.7674 14.72621376117260 RS-40 1 38735U 12041C 14205.32335540 .00000024 00000-0 10000-3 0 6291 2 38735 082.4759 264.3863 0017281 169.9806 190.1624 12.42560997 90190 PROITERES 1 38756U 12047B 14205.43424221 .00000223 00000-0 41089-4 0 430 2 38756 098.2288 294.3391 0011301 262.2415 097.7510 14.75011598100671 BEESAT-3 1 39134U 13015E 14205.78348513 .00000902 00000-0 74030-4 0 6537 2 39134 064.8769 019.5317 0030325 300.0597 059.7518 15.05599015 69320 BEESAT-2 1 39136U 13015G 14204.86645086 .00000759 00000-0 65311-4 0 6332 2 39136 064.8763 023.0230 0030440 300.2433 059.5677 15.04945197 69171 LO-75 1 39382U 13064C 14205.51855315 .00027967 00000-0 50252-3 0 3367 2 39382 040.4927 228.8631 0019219 149.5681 210.6261 15.49000765 37846 ZACUBE-1 1 39417U 13066B 14204.92899907 .00000601 00000-0 87214-4 0 3575 2 39417 097.7731 274.2866 0063329 123.4857 237.2393 14.78197117 36125 TRITON-1 1 39427U 13066M 14204.71726406 .00000483 00000-0 88577-4 0 2105 2 39427 097.7594 269.1583 0118794 133.8734 227.2350 14.65468186 35740 DELFIN3XT 1 39428U 13066N 14204.76054585 .00000818 00000-0 14862-3 0 2133 2 39428 097.7578 268.3214 0129146 135.8974 225.2519 14.63415017 35687 GOMX-1 1 39430U 13066Q 14205.67041858 .00000322 00000-0 69528-4 0 6680 2 39430 097.7536 266.8009 0157583 139.7154 221.5823 14.56899009 35673 MO-76 1 39436U 13066W 14204.89086844 .00003454 00000-0 35446-3 0 2768 2 39436 097.7757 277.9525 0028032 127.9419 232.4336 14.90776675 36345 LO-74 1 39440U 13066AA 14205.62698864 .00000457 00000-0 74468-4 0 2102 2 39440 097.7691 273.0030 0085275 124.1056 236.8266 14.73138489 36091 PUCPSAT-1 1 39442U 13066AC 14205.26597078 .00000831 00000-0 99723-4 0 2083 2 39442 097.7778 277.6358 0035415 122.1591 238.3010 14.86217851 35138 LO-78 1 39569U 98067EN 14205.58369156 .01199622 10031-2 91459-3 0 4552 2 39569 051.6342 250.5278 0010164 007.5026 352.6369 16.14527136 22998 SHINAISAT 1 39572U 14009A 14205.70265359 .00022991 00000-0 16909-3 0 2016 2 39572 065.0084 272.4258 0019903 288.0491 071.9020 15.72431172 23002 OPUSAT 1 39575U 14009D 14205.03098383 .10394079 79053-5 15280-3 0 2959 2 39575 064.9843 263.3854 0017888 326.7083 036.3105 16.47207532 23119 TEIKYOSAT 1 39576U 14009E 14205.69982290 .00032182 00000-0 19463-3 0 2109 2 39576 065.0064 270.3871 0020706 299.5968 060.3135 15.77153845 23047 CO-77 1 39577U 14009F 14205.20711000 .00102397 10569-4 33569-3 0 2234 2 39577 065.0052 268.0034 0021724 300.1971 059.6977 15.90177252 23042 STARS-II 1 39579U 14009H 14116.06110564 .20186783 77451-5 52661-3 0 1329 2 39579 064.9886 219.0071 0013010 293.8065 069.6132 16.44611049 9028 SPROUT 1 39770U 14029E 14205.79278570 .00000231 00000-0 35157-4 0 766 2 39770 097.8726 302.3713 0010031 180.9821 179.1352 14.82659129 9116 POPSAT-HIP1 1 40028U 14033U 14205.67937357 .00000281 00000-0 39283-4 0 995 2 40028 097.9831 100.3904 0014738 166.7881 193.3744 14.85109266 5143 EO-80 1 40032U 14033Y 14205.68475223 .00000329 00000-0 45122-4 0 969 2 40032 097.9815 100.3669 0012245 162.0866 198.0804 14.84880589 5154 VELOX-1 1 40057U 14034E 14205.66176301 .00000494 00000-0 83225-4 0 857 2 40057 098.2510 273.2402 0011051 197.3859 162.6949 14.73986925 3603 DAURIA DX 1 1 40071U 14037C 14205.68972798 .00000119 00000-0 23546-4 0 564 2 40071 098.4027 258.0176 0008099 201.7741 158.3070 14.79508312 2355 OBJECT F 1 40074U 14037F 14205.74809509 .00000392 00000-0 58890-4 0 599 2 40074 098.4033 258.1034 0004346 203.4464 156.6515 14.80373386 2360 OBJECT G 1 40075U 14037G 14205.74808371 .00000190 00000-0 32398-4 0 609 2 40075 098.4018 258.1010 0005158 223.0788 136.9989 14.80369148 2364 /EX